{"data":{"norad_id":57264,"epoch":"2026-09-20T22:49:29.734176Z","epoch_age_seconds":85223,"freshness":"FRESH","line1":"1 57264U 23094AY  26263.95103859 -.00001215  00000+0 -34651-4 0  9994","line2":"2 57264  43.0035 357.0661 0001379 264.2415  95.8279 15.27574868177102","mean_motion":15.27574868,"eccentricity":0.0001379,"inclination_deg":43.0035,"raan_deg":357.0661,"arg_perigee_deg":264.2415,"mean_anomaly_deg":95.8279,"bstar":-3.4651e-5,"rev_number":17710,"period_min":94.26706540972,"perigee_km":482.11830345514,"apogee_km":484.01062281867,"semimajor_km":6861.2014631369,"source":"CELESTRAK","updated_at":"2026-09-21T09:00:33.593936Z"}}